Time,TemperatureF,DewpointF,PressureIn,WindDirection,WindDirectionDegrees,WindSpeedMPH,WindSpeedGustMPH,Humidity,HourlyPrecipIn,Conditions,Clouds,dailyrainin,SoftwareType,DateUTC
2017-04-29 00:13:00,57.0,6.0,-100.00,ENE,73,15.0,30.0,13,-99.99,,,-99.99,,2017-04-29 07:13:00,
2017-04-29 00:57:00,56.0,9.0,-100.00,ENE,63,17.0,34.0,15,-99.99,,,-99.99,,2017-04-29 07:57:00,
2017-04-29 01:38:00,55.0,10.0,-100.00,ENE,76,20.0,-999.0,16,-99.99,,,-99.99,,2017-04-29 08:38:00,
2017-04-29 02:39:00,54.0,10.0,-100.00,ENE,77,23.0,-999.0,17,-99.99,,,-99.99,,2017-04-29 09:39:00,
2017-04-29 02:57:00,54.0,10.0,-100.00,ENE,77,23.0,38.0,17,-99.99,,,-99.99,,2017-04-29 09:57:00,
2017-04-29 03:12:00,54.0,10.0,-100.00,ENE,77,23.0,-999.0,17,-99.99,,,-99.99,,2017-04-29 10:12:00,
2017-04-29 03:58:00,53.0,9.0,-100.00,ENE,65,20.0,-999.0,17,-99.99,,,-99.99,,2017-04-29 10:58:00,
2017-04-29 05:38:00,52.0,3.0,-100.00,ENE,70,15.0,32.0,13,-99.99,,,-99.99,,2017-04-29 12:38:00,
2017-04-29 07:13:00,51.0,6.0,-100.00,ENE,66,19.0,-999.0,16,-99.99,,,-99.99,,2017-04-29 14:13:00,
2017-04-29 08:05:00,54.0,9.0,-100.00,ENE,64,21.0,-999.0,16,-99.99,,,-99.99,,2017-04-29 15:05:00,
2017-04-29 08:39:00,56.0,9.0,-100.00,ENE,75,22.0,-999.0,15,-99.99,,,-99.99,,2017-04-29 15:39:00,
2017-04-29 09:14:00,57.0,13.0,-100.00,East,79,22.0,41.0,17,-99.99,,,-99.99,,2017-04-29 16:14:00,
2017-04-29 13:05:00,64.0,14.0,-100.00,ENE,64,17.0,-999.0,14,-99.99,,,-99.99,,2017-04-29 20:05:00,
2017-04-29 14:04:00,66.0,12.0,-100.00,ENE,60,14.0,33.0,12,-99.99,,,-99.99,,2017-04-29 21:04:00,
2017-04-29 16:07:00,68.0,9.0,-100.00,NE,51,16.0,28.0,10,-99.99,,,-99.99,,2017-04-29 23:07:00,
2017-04-29 16:57:00,68.0,9.0,-100.00,ENE,59,15.0,27.0,10,-99.99,,,-99.99,,2017-04-29 23:57:00,
2017-04-29 17:13:00,68.0,9.0,-100.00,ENE,59,15.0,-999.0,10,-99.99,,,-99.99,,2017-04-30 00:13:00,
2017-04-29 17:49:00,68.0,9.0,-100.00,NE,44,16.0,25.0,10,-99.99,,,-99.99,,2017-04-30 00:49:00,
2017-04-29 18:48:00,67.0,10.0,-100.00,NE,45,12.0,21.0,11,-99.99,,,-99.99,,2017-04-30 01:48:00,
2017-04-29 19:04:00,67.0,10.0,-100.00,NE,45,12.0,21.0,11,-99.99,,,-99.99,,2017-04-30 02:04:00,